Terminal Aerodrome Forecast
Issued by NWS

Home | Current Version | Previous Version | Text Only | Print | Product List | Glossary On
Versions: 1 2 3 4 5 6 7 8 9 10 11 12 13 14 15 16 17 18 19 20 21 22 23 24 25 26 27 28 29 30 31 32 33 34 35 36 37 38 39 40 41 42 43 44 45 46 47 48 49 50
000
FTUS45 KVEF 311720
TAFLAS
TAF
KLAS 311720Z 3118/0118 14007KT P6SM FEW250
     FM312000 16008G15KT P6SM FEW250
     FM312200 20012G20KT P6SM FEW250
      TEMPO 3122/3123 16010G16KT
     FM010300 21009KT P6SM FEW250
     FM011400 VRB05KT P6SM FEW250
     FM011700 15008G15KT P6SM FEW250=

USA.gov is the U.S. government's official web portal to all federal, state and local government web resources and services.